Regional Weather Roundup
Issued by NWS

Home | Current Version | Previous Version | Text Only | Print | Product List | Glossary On
Versions: 1 2 3 4 5 6 7 8 9 10 11 12 13 14 15 16 17 18 19 20 21 22 23 24 25 26 27 28
000
ASUS46 KPQR 250610
RWROR

OREGON REGIONAL WEATHER ROUNDUP
NATIONAL WEATHER SERVICE PORTLAND OR
1100 PM PDT THU APR 24 2014

NOTE: "FAIR" INDICATES FEW OR NO CLOUDS BELOW 12,000 FEET WITH
NO SIGNIFICANT WEATHER AND/OR OBSTRUCTIONS TO VISIBILITY.

ORZ001>013-250700-
NORTHWEST OREGON


CITY           SKY/WX    TMP DP  RH WIND       PRES   REMARKS
ASTORIA        RAIN      46  42  86 S10       29.92R FOG
6HR MIN TEMP:  44; 6HR MAX TEMP:  52; 6HR PCP:  0.07;

NEWPORT        MOCLDY    45  43  93 SE3       29.96S
PORTLAND       CLOUDY    47  44  90 E5        29.93S
6HR MIN TEMP:  47; 6HR MAX TEMP:  57; 6HR PCP:  0.01;

VANCOUVER WA   CLOUDY    49  41  74 SE5       29.93R
6HR MIN TEMP:  48; 6HR MAX TEMP:  57;

SCAPPOOSE      CLOUDY    46  41  82 CALM      29.92S
6HR MIN TEMP:  45; 6HR MAX TEMP:  56;

HILLSBORO      CLOUDY    48  40  73 CALM      29.92S
6HR MIN TEMP:  47; 6HR MAX TEMP:  55; 6HR PCP: TRACE;

AURORA         CLOUDY    48  43  82 S3        29.94S
6HR MIN TEMP:  48; 6HR MAX TEMP:  55; 6HR PCP: TRACE;

MCMINNVILLE    CLOUDY    48  45  89 S5        29.94R
6HR MIN TEMP:  46; 6HR MAX TEMP:  56; 6HR PCP:  0.07;

SALEM          CLOUDY    48  43  82 SE6       29.92F
6HR MIN TEMP:  48; 6HR MAX TEMP:  56; 6HR PCP: TRACE;

CORVALLIS      CLOUDY    46  43  87 CALM      29.94S
EUGENE         CLOUDY    44  41  89 SE3       29.95S
6HR MIN TEMP:  44; 6HR MAX TEMP:  58;

$$

ORZ021-028-250700-
SOUTHWEST OREGON


CITY           SKY/WX    TMP DP  RH WIND       PRES   REMARKS
NORTH BEND     CLOUDY    50  48  93 SE7       29.95F
6HR MIN TEMP:  50; 6HR MAX TEMP:  55; 6HR PCP:  0.01;

BROOKINGS      CLOUDY    48  47  97 CALM      29.97F
ROSEBURG       CLOUDY    49  40  71 CALM      29.95S
6HR MIN TEMP:  49; 6HR MAX TEMP:  58; 6HR PCP: TRACE;

SEXTON SUMMIT  CLOUDY    35  33  92 VRB5      29.89S WCI  31
6HR MIN TEMP:  35; 6HR MAX TEMP:  41; 6HR PCP: TRACE;

MEDFORD        CLOUDY    50  37  61 NW7       29.92S
6HR MIN TEMP:  50; 6HR MAX TEMP:  56;

$$

ORZ009-041-250700-
COLUMBIA GORGE


CITY           SKY/WX    TMP DP  RH WIND       PRES   REMARKS
TROUTDALE      CLOUDY    48  43  82 E6        29.92S
6HR MIN TEMP:  46; 6HR MAX TEMP:  57; 6HR PCP: TRACE;

THE DALLES     CLOUDY    48  41  76 NW6       29.89F
6HR MIN TEMP:  48; 6HR MAX TEMP:  58;

$$

ORZ029>031-042>050-061>064-250700-
EASTERN OREGON


CITY           SKY/WX    TMP DP  RH WIND       PRES   REMARKS
REDMOND        CLOUDY    42  33  70 NE3       29.86S
6HR MIN TEMP:  42; 6HR MAX TEMP:  56; 6HR PCP: TRACE;

BEND           CLOUDY    39  34  81 CALM      29.86F
KLAMATH FALLS  CLOUDY    43  33  68 W5        29.85F
6HR MIN TEMP:  43; 6HR MAX TEMP:  56;

LAKEVIEW       CLOUDY    39  36  87 S14G21    29.88F WCI  31
HERMISTON      CLOUDY    51  39  63 SW13      29.85F
6HR MIN TEMP:  51; 6HR MAX TEMP:  65;

PENDLETON      LGT RAIN  47  37  68 W12       29.85S
6HR MIN TEMP:  47; 6HR MAX TEMP:  59; 6HR PCP: TRACE;

JOHN DAY       CLOUDY    43  37  81 CALM      29.85S
MEACHAM        CLOUDY    41  37  86 CALM      29.84F
6HR MIN TEMP:  41; 6HR MAX TEMP:  49;

LA GRANDE      CLOUDY    43  36  75 NW9       29.84S
6HR MIN TEMP:  43; 6HR MAX TEMP:  52; 6HR PCP:  0.08;

BAKER CITY     CLOUDY    41  39  93 CALM      29.84F
6HR MIN TEMP:  39; 6HR MAX TEMP:  50; 6HR PCP:  0.13;

BURNS          CLOUDY    41  37  86 SW5       29.86F
6HR MIN TEMP:  40; 6HR MAX TEMP:  49; 6HR PCP:  0.02;

ROME             N/A     46  37  71 E7        29.84F
6HR MIN TEMP:  45; 6HR MAX TEMP:  60; 6HR PCP:  0.01;

ONTARIO        MOCLDY    48  44  86 CALM      29.86S
6HR MIN TEMP:  48; 6HR MAX TEMP:  57; 6HR PCP:  0.02;

$$



USA.gov is the U.S. government's official web portal to all federal, state and local government web resources and services.